San Marcos, TX

10:25 PM CST on November 19, 2017 (GMT -0600)
San Marcos Municipal

Weather History for KHYI - September, 2014

Change the Weather History Date:

Wednesday, September 3, 2014

  Actual Average (KAUS) Record (KAUS)
Temperature  
Mean Temperature 84 °F -  
Max Temperature 98 °F 91 °F 107 °F (2000)
Min Temperature 71 °F 69 °F 61 °F (2004)
Cooling Degree Days 20    
Growing Degree Days 34 (Base 50)    
Moisture  
Dew Point 67 °F    
Average Humidity 66    
Maximum Humidity 83    
Minimum Humidity 32    
Precipitation  
Precipitation 0.00 in - - ()
Sea Level Pressure  
Sea Level Pressure 29.98 in    
Wind  
Wind Speed 7 mph (South)    
Max Wind Speed 21 mph    
Max Gust Speed 29 mph    
Visibility 10 miles    
Events      
Averages and records for this station are not official NWS values.
T = Trace of Precipitation, MM = Missing Value Source: NWS Daily Summary

Daily Weather History Graph

Daily Weather History Graph

Search for Another Location

Airport or City:

Trip Planner

Search our weather history database for the weather conditions in past years. The results will help you decide how hot, cold, wet, or windy it might be!

Date:

Astronomy

Sep. 03, 2014 Rise Set
Actual Time 7:09 AM CDT 7:51 PM CDT
Civil Twilight 6:45 AM CDT 8:15 PM CDT
Nautical Twilight 6:16 AM CDT 8:44 PM CDT
Astronomical Twilight 5:47 AM CDT 9:13 PM CDT
Moon 3:21 PM CDT (9/3) 1:18 AM CDT (9/3)
Length of Visible Light 13h 30m
Length of Day
12h 41m
Waxing Gibbous, 64% of the Moon is Illuminated
Sep 3
Waxing Gibbous
Sep 8
Full
Sep 15
Last Quarter
Sep 24
New
Oct 1
First Quarter

Hourly Weather History & Observations

Time (CDT) Temp. Heat Index Dew Point Humidity Pressure Visibility Wind Dir Wind Speed Gust Speed Precip Events Conditions
12:15 AM 78.8 °F - 68.0 °F 69% 29.98 in 10.0 mi SSE 11.5 mph - N/A   Clear
12:35 AM 78.8 °F - 68.0 °F 69% 29.98 in 10.0 mi SE 5.8 mph - N/A   Clear
12:55 AM 78.8 °F - 68.0 °F 69% 29.98 in 10.0 mi SSE 6.9 mph - N/A   Clear
1:15 AM 77.0 °F - 68.0 °F 74% 29.98 in 10.0 mi SSE 8.1 mph - N/A   Clear
1:35 AM 78.8 °F - 68.0 °F 69% 29.98 in 10.0 mi South 9.2 mph - N/A   Clear
1:55 AM 78.8 °F - 68.0 °F 69% 29.98 in 10.0 mi SSE 8.1 mph - N/A   Clear
2:15 AM 77.0 °F - 68.0 °F 74% 29.98 in 10.0 mi South 6.9 mph - N/A   Partly Cloudy
2:35 AM 77.0 °F - 66.2 °F 69% 29.98 in 10.0 mi South 6.9 mph - N/A   Partly Cloudy
2:55 AM 77.0 °F - 66.2 °F 69% 29.98 in 10.0 mi South 5.8 mph - N/A   Clear
3:15 AM 75.2 °F - 68.0 °F 78% 29.98 in 10.0 mi SSE 3.5 mph - N/A   Scattered Clouds
3:35 AM 75.2 °F - 66.2 °F 73% 29.98 in 10.0 mi ESE 3.5 mph - N/A   Partly Cloudy
3:55 AM 73.4 °F - 66.2 °F 78% 29.98 in 10.0 mi Calm Calm - N/A   Clear
4:15 AM 73.4 °F - 66.2 °F 78% 29.98 in 10.0 mi SSE 3.5 mph - N/A   Partly Cloudy
4:35 AM 73.4 °F - 64.4 °F 73% 29.97 in 10.0 mi Calm Calm - N/A   Partly Cloudy
4:55 AM 71.6 °F - 64.4 °F 78% 29.98 in 10.0 mi Calm Calm - N/A   Clear
5:15 AM 71.6 °F - 64.4 °F 78% 29.97 in 10.0 mi Calm Calm - N/A   Clear
5:35 AM 71.6 °F - 64.4 °F 78% 29.98 in 10.0 mi Calm Calm - N/A   Clear
5:55 AM 71.6 °F - 66.2 °F 83% 29.98 in 10.0 mi Calm Calm - N/A   Clear
6:15 AM 71.6 °F - 66.2 °F 83% 29.98 in 10.0 mi Calm Calm - N/A   Clear
6:35 AM 71.6 °F - 66.2 °F 83% 29.98 in 10.0 mi ENE 5.8 mph - N/A   Clear
6:47 AM 71.6 °F - 66.2 °F 83% 29.99 in 10.0 mi NNE 4.6 mph - N/A   Scattered Clouds
7:30 AM 73.4 °F - 66.2 °F 78% 29.99 in 1.5 mi NE 4.6 mph - N/A   Mostly Cloudy
7:50 AM 73.4 °F - 68.0 °F 83% 30.00 in 1.5 mi NNE 4.6 mph - N/A   Mostly Cloudy
8:50 AM 78.8 °F - 69.8 °F 74% 30.00 in 5.0 mi North - - N/A   Mostly Cloudy
9:50 AM 82.4 °F 87.2 °F 71.6 °F 70% 30.02 in 10.0 mi North - - N/A   Mostly Cloudy
10:50 AM 87.8 °F 93.8 °F 71.6 °F 58% 30.03 in 10.0 mi SE 11.5 mph - N/A   Mostly Cloudy
11:50 AM 91.4 °F 98.4 °F 71.6 °F 52% 30.03 in 10.0 mi SSE 13.8 mph 18.4 mph N/A   Mostly Cloudy
12:50 PM 95.0 °F 101.3 °F 69.8 °F 44% 30.01 in 10.0 mi ESE 17.3 mph 24.2 mph N/A   Scattered Clouds
1:50 PM 96.8 °F 100.7 °F 66.2 °F 37% 29.98 in 10.0 mi ESE 13.8 mph 21.9 mph N/A   Mostly Cloudy
2:51 PM 95.0 °F 98.5 °F 66.2 °F 39% 29.96 in 10.0 mi SE 20.7 mph 28.8 mph N/A   Mostly Cloudy
3:48 PM 98.6 °F 101.0 °F 64.4 °F 32% 29.93 in 10.0 mi SSE 20.7 mph 28.8 mph N/A   Scattered Clouds
4:55 PM 96.8 °F 98.0 °F 62.6 °F 32% 29.93 in 10.0 mi SSE 16.1 mph 28.8 mph N/A   Scattered Clouds
6:52 PM 84.2 °F 87.3 °F 68.0 °F 58% 29.96 in 10.0 mi SW 13.8 mph - N/A   Clear
6:55 PM 84.2 °F 87.3 °F 68.0 °F 58% 29.96 in 10.0 mi WSW 13.8 mph - N/A   Clear
7:15 PM 84.2 °F 87.3 °F 68.0 °F 58% 29.96 in 10.0 mi SW 12.7 mph - N/A   Clear
7:35 PM 84.2 °F 86.6 °F 66.2 °F 55% 29.96 in 10.0 mi SW 9.2 mph - N/A   Clear
7:55 PM 82.4 °F 84.6 °F 66.2 °F 58% 29.96 in 10.0 mi SSW 6.9 mph - N/A   Clear
8:15 PM 82.4 °F 84.6 °F 66.2 °F 58% 29.96 in 10.0 mi SW 4.6 mph - N/A   Clear
8:35 PM 80.6 °F 82.7 °F 66.2 °F 61% 29.97 in 10.0 mi SW 4.6 mph - N/A   Clear
8:55 PM 80.6 °F 82.7 °F 66.2 °F 61% 29.98 in 10.0 mi SW 4.6 mph - N/A   Clear
9:15 PM 80.6 °F 82.7 °F 66.2 °F 61% 29.98 in 10.0 mi SW 5.8 mph - N/A   Clear
9:35 PM 80.6 °F 82.7 °F 66.2 °F 61% 29.99 in 10.0 mi SW 4.6 mph - N/A   Clear
9:55 PM 80.6 °F 82.7 °F 66.2 °F 61% 30.00 in 10.0 mi Calm Calm - N/A   Clear
10:15 PM 78.8 °F - 66.2 °F 65% 30.01 in 10.0 mi Calm Calm - N/A   Clear
10:55 PM 77.0 °F - 64.4 °F 65% 30.01 in 10.0 mi Calm Calm - N/A   Clear
11:15 PM 73.4 °F - 64.4 °F 73% 30.02 in 10.0 mi Calm Calm - N/A   Clear
11:35 PM 75.2 °F - 64.4 °F 69% 30.02 in 10.0 mi Calm Calm - N/A   Clear
11:55 PM 78.8 °F - 66.2 °F 65% 30.02 in 10.0 mi South 5.8 mph - N/A   Clear